Wind_Speed
40 41 42 43 43 44 44 45 46 46 47 48 48 49 50 51 50 50 50 50 50 50 50 50 49 50 50 49 49 49 48 48 48 47 46 45 44 43 42 41 38 37 36
41 42 43 44 45 45 46 47 47 48 49 49 49 49 49 50 50 50 50 50 50 49 49 49 49 49 49 48 48 48 48 47 47 46 45 45 44 43 41 39 37 36 34
44 45 45 46 46 47 48 48 49 49 49 49 50 50 50 51 51 50 50 50 49 48 48 47 47 47 47 47 47 46 46 46 46 45 44 43 42 41 39 37 35 34 32
46 47 47 47 47 48 48 49 49 49 49 49 49 49 50 49 49 48 48 47 47 46 46 46 46 46 46 46 45 45 45 45 44 44 42 41 40 38 36 35 34 33 32
47 48 48 48 48 48 48 48 48 48 48 47 47 47 47 46 46 45 45 45 45 45 45 45 44 44 44 44 44 44 44 43 42 41 40 38 37 35 34 33 32 31 30
49 49 49 49 49 49 49 48 48 48 47 47 46 46 46 46 46 46 45 45 44 44 43 43 43 43 43 43 43 43 42 41 40 39 38 36 35 33 32 32 31 30 29
51 51 51 51 51 51 50 50 49 49 49 48 48 47 47 47 46 45 44 44 43 43 42 42 42 41 41 41 41 40 39 38 37 37 36 35 33 32 32 31 30 29 28
51 51 51 51 51 51 51 50 50 49 48 48 47 46 46 45 45 44 43 42 42 41 41 41 41 40 40 39 39 38 37 36 35 34 33 33 32 32 31 30 29 29 28
50 50 50 50 50 50 49 49 48 48 47 46 45 45 44 43 43 43 42 42 41 40 40 39 39 38 37 37 36 35 34 33 33 32 32 31 31 31 31 30 29 28 28
49 49 49 49 49 48 48 47 47 46 46 45 45 44 43 43 42 42 41 41 40 40 39 38 37 36 35 34 34 33 32 31 31 30 30 30 30 30 30 29 28 28 28
49 49 49 49 48 48 48 47 47 46 45 45 44 43 43 42 42 41 40 40 39 39 37 36 36 35 33 33 32 31 31 31 30 30 29 29 28 28 28 28 28 28 28
50 49 49 48 48 48 47 47 46 46 45 45 44 43 42 42 41 40 39 39 37 37 35 35 34 33 32 31 30 29 29 29 28 28 28 27 27 27 27 27 28 28 29
49 49 49 48 48 47 47 46 46 45 45 44 43 42 41 41 40 39 38 37 36 35 34 33 32 31 30 30 29 28 28 27 26 26 26 26 26 26 27 28 28 29 29
48 48 48 47 47 46 46 46 46 45 44 44 43 42 41 40 39 38 37 36 35 34 33 32 31 30 29 28 28 27 26 26 26 26 26 26 26 26 27 27 28 29 30
49 48 48 47 47 46 45 44 44 44 43 43 42 41 40 39 39 38 37 36 35 33 32 31 30 30 28 27 26 26 26 25 25 25 25 26 26 26 27 28 28 29 30
47 47 47 46 46 45 44 44 43 43 42 42 42 41 40 39 38 37 36 35 34 33 32 31 30 29 28 27 26 26 25 25 24 25 25 26 27 28 28 29 29 30 31
47 45 45 45 45 44 44 43 43 43 42 42 41 40 39 38 38 37 35 34 33 32 31 31 30 29 28 27 27 26 26 26 26 26 27 27 28 28 29 29 30 31 32
47 47 46 45 45 44 44 43 43 42 42 42 40 39 38 37 37 36 35 33 32 31 31 31 31 30 29 28 28 28 28 27 27 28 28 28 29 29 30 30 31 32 32
46 46 46 45 44 44 43 43 43 42 42 41 40 39 38 37 36 35 34 33 32 31 31 31 30 30 29 29 29 29 29 29 29 29 29 30 30 30 31 31 31 32 32
45 46 46 45 44 44 43 43 42 42 42 41 40 39 38 38 37 35 34 33 33 32 31 30 30 30 30 29 29 29 29 29 29 30 30 30 30 31 31 31 31 32 33
45 45 45 45 45 44 43 42 42 42 41 40 40 39 39 38 37 36 34 33 33 32 32 31 31 31 31 31 30 30 30 30 31 31 31 31 31 31 32 32 33 33 34
44 44 44 44 44 44 43 43 42 41 40 39 39 39 39 38 37 36 35 34 33 33 33 32 32 32 32 31 31 31 31 32 32 32 32 32 32 33 33 33 34 35 35
39 41 42 43 43 43 43 43 42 42 41 40 39 39 39 39 37 36 35 34 34 34 34 34 33 32 32 32 31 31 31 31 32 32 32 32 32 33 33 34 35 36 36
36 37 38 40 41 42 42 43 42 41 40 41 40 39 39 39 38 38 37 36 35 34 34 33 33 33 32 32 32 31 31 31 31 31 32 32 33 33 34 35 35 36 37
33 33 35 37 39 40 40 41 42 41 41 40 40 39 38 38 38 38 38 37 36 35 33 33 32 32 32 32 32 31 31 31 31 32 32 32 33 34 34 35 35 36 37
30 31 32 33 36 38 39 39 40 40 40 39 39 39 38 38 38 37 37 37 36 35 34 33 32 31 31 31 31 30 31 31 32 32 32 33 33 34 34 35 35 36 37
Wind_Direction
257 258 258 259 260 261 262 263 265 267 269 270 271 272 273 274 276 277 278 279 281 282 283 285 285 285 286 285 285 285 285 285 285 284 284 285 285 286 286 286 286 287 287
258 259 260 261 261 262 263 264 266 267 268 270 271 273 274 275 277 277 279 280 282 283 284 284 285 286 285 285 285 284 284 284 284 284 284 284 284 285 285 284 284 284 284
260 260 261 261 262 263 264 264 265 266 267 269 271 273 274 275 277 278 280 281 282 283 284 285 285 285 285 284 284 284 284 284 284 284 284 284 284 284 284 282 282 281 280
260 261 262 262 263 264 264 265 265 266 268 269 271 272 274 275 277 279 280 282 282 283 284 284 285 284 284 284 284 284 284 284 284 284 284 284 283 283 282 281 280 278 278
261 261 262 262 263 264 264 265 265 266 268 269 271 272 274 276 278 279 280 281 282 283 284 284 284 284 284 284 284 284 284 283 283 283 283 283 282 282 280 279 277 277 276
261 262 262 262 263 264 264 264 266 267 268 269 271 273 274 276 278 279 281 281 282 282 283 283 284 284 285 285 285 284 284 284 282 282 281 281 281 280 278 276 275 274 273
261 262 262 263 263 264 264 265 266 267 268 270 271 273 274 275 277 278 279 280 281 281 282 283 284 285 285 285 285 285 285 284 283 281 280 279 278 277 275 274 272 272 271
263 263 263 263 263 264 264 265 265 267 268 270 271 272 273 275 275 276 277 279 279 280 282 283 284 284 285 285 285 285 284 283 282 281 279 278 276 275 274 272 270 270 269
264 264 264 264 264 264 265 265 265 266 267 268 269 271 272 273 274 274 275 277 279 280 282 283 284 284 284 285 284 284 283 282 281 280 278 276 274 273 272 270 269 269 269
265 264 264 264 263 263 264 264 265 265 265 266 267 269 270 272 273 274 275 276 278 279 281 282 282 283 283 283 283 282 281 280 280 279 277 276 274 272 271 270 269 270 271
266 265 264 264 263 263 263 263 263 264 264 265 266 268 269 270 271 273 274 275 277 278 279 280 281 281 281 281 281 280 279 279 278 277 276 275 274 273 272 271 271 272 273
266 265 264 263 263 262 262 262 262 262 263 264 265 266 267 269 270 271 272 274 276 276 277 278 279 278 278 279 279 279 279 278 277 276 275 274 273 273 273 272 273 274 275
266 265 264 262 261 261 260 260 260 261 261 261 262 264 265 267 268 269 270 272 273 273 274 276 276 276 276 277 277 277 277 276 275 274 274 273 273 273 274 275 276 277 278
266 264 262 261 260 260 259 258 258 259 259 259 260 261 263 264 266 266 267 269 270 270 272 272 272 273 274 275 274 274 274 274 273 273 273 274 275 276 276 276 278 278 279
266 263 261 260 258 258 258 256 256 256 257 257 258 259 260 261 263 264 265 266 266 267 269 269 269 270 271 271 271 271 272 272 273 274 274 274 275 275 276 278 279 280 281
266 263 260 258 257 256 255 254 253 253 254 255 256 257 258 259 261 261 262 263 263 264 266 265 265 266 266 267 269 270 270 270 272 274 275 275 276 277 279 280 281 282 283
264 262 260 256 254 253 253 252 251 251 252 253 254 254 255 257 258 258 259 259 260 262 262 261 262 263 263 264 266 267 269 271 273 274 275 276 277 279 280 281 282 284 285
264 261 258 256 252 251 251 250 249 249 249 251 252 252 253 254 255 255 255 255 257 259 259 258 259 260 261 263 264 267 269 271 273 275 276 277 278 280 281 283 284 285 286
263 260 257 254 251 250 249 249 249 248 247 247 249 250 250 251 251 252 252 254 255 256 257 257 256 258 260 263 265 267 269 271 273 275 277 279 280 281 283 285 286 286 287
262 259 255 252 250 248 248 248 247 247 246 246 246 247 248 249 249 250 251 252 253 254 255 255 255 257 260 262 265 267 269 271 273 276 278 279 280 282 284 285 286 288 289
262 258 254 252 249 247 246 246 246 246 246 245 244 245 245 246 247 248 249 251 251 252 253 254 255 257 260 262 265 267 269 271 274 276 277 279 280 282 284 285 287 288 290
263 258 254 250 247 245 244 244 244 244 243 243 242 243 243 244 245 246 248 249 249 250 252 254 255 258 260 262 264 267 270 272 274 276 277 278 280 282 283 285 287 289 291
263 258 254 249 245 244 243 243 243 242 242 242 242 241 241 242 243 244 247 249 249 250 252 254 256 258 261 263 266 268 270 272 275 276 277 279 281 283 284 286 288 290 292
264 259 252 246 243 242 242 242 242 241 240 241 241 242 241 241 242 244 246 248 249 250 252 253 255 257 260 263 266 268 270 272 275 276 278 280 281 283 285 287 289 291 292
265 259 252 246 241 240 240 240 240 240 239 240 240 240 241 242 243 244 245 246 247 248 250 252 255 258 260 263 266 268 270 273 275 277 279 281 282 284 286 288 290 292 293
266 259 253 247 242 240 238 238 239 238 238 238 239 239 240 241 242 243 243 244 245 246 249 252 255 258 261 262 265 267 270 273 276 278 279 281 283 285 287 289 290 292 294
Height
5706 5708 5709 5711 5712 5713 5714 5715 5715 5716 5717 5717 5717 5718 5718 5718 5718 5718 5717 5716 5716 5715 5713 5712 5710 5709 5707 5705 5703 5701 5700 5698 5697 5696 5694 5692 5690 5688 5687 5685 5684 5683 5682
5697 5698 5699 5700 5701 5702 5703 5704 5704 5705 5705 5706 5706 5706 5706 5706 5706 5706 5705 5704 5703 5702 5701 5700 5698 5696 5695 5693 5691 5689 5688 5686 5685 5684 5682 5681 5679 5677 5676 5675 5674 5673 5672
5686 5687 5688 5689 5690 5691 5692 5692 5693 5693 5694 5694 5694 5694 5695 5695 5694 5694 5693 5692 5691 5690 5689 5687 5686 5684 5683 5681 5679 5678 5676 5674 5673 5672 5671 5669 5668 5667 5665 5664 5664 5663 5663
5675 5676 5676 5677 5678 5679 5680 5680 5681 5681 5682 5682 5682 5683 5683 5682 5682 5682 5681 5680 5679 5678 5677 5675 5674 5673 5671 5670 5668 5666 5665 5663 5662 5660 5659 5658 5657 5656 5655 5655 5654 5654 5654
5664 5664 5665 5665 5666 5667 5667 5668 5668 5669 5669 5670 5670 5670 5671 5671 5670 5670 5669 5669 5668 5667 5665 5664 5662 5661 5659 5658 5656 5655 5653 5652 5650 5649 5648 5647 5647 5646 5646 5645 5645 5645 5645
5652 5652 5652 5653 5654 5654 5655 5656 5656 5657 5657 5658 5658 5659 5659 5659 5659 5659 5658 5657 5656 5655 5654 5653 5651 5650 5648 5647 5645 5643 5642 5641 5639 5639 5638 5637 5637 5636 5636 5636 5636 5636 5637
5639 5639 5640 5640 5641 5642 5643 5644 5644 5645 5645 5646 5647 5647 5647 5647 5647 5647 5647 5646 5645 5644 5643 5642 5640 5639 5637 5636 5634 5633 5631 5630 5629 5629 5628 5627 5627 5627 5627 5627 5628 5628 5628
5626 5626 5626 5627 5628 5629 5630 5631 5631 5632 5633 5634 5635 5635 5635 5636 5636 5636 5635 5635 5634 5633 5632 5631 5630 5628 5627 5625 5624 5622 5621 5620 5619 5619 5618 5618 5618 5618 5619 5619 5619 5619 5620
5612 5612 5613 5613 5614 5615 5616 5617 5618 5619 5620 5621 5622 5623 5623 5624 5624 5624 5624 5624 5623 5622 5621 5620 5619 5617 5616 5615 5614 5613 5612 5611 5610 5610 5609 5609 5609 5609 5610 5610 5611 5611 5612
5598 5598 5599 5599 5601 5602 5603 5604 5605 5606 5608 5609 5610 5611 5612 5612 5612 5612 5612 5612 5612 5611 5610 5609 5608 5607 5606 5605 5604 5603 5603 5602 5602 5601 5601 5601 5601 5601 5602 5602 5603 5603 5603
5584 5584 5584 5585 5586 5588 5589 5590 5592 5593 5595 5596 5598 5598 5599 5600 5601 5601 5601 5601 5601 5600 5600 5599 5598 5598 5597 5596 5595 5594 5594 5594 5593 5593 5593 5593 5593 5593 5594 5594 5594 5595 5595
5569 5569 5570 5571 5572 5573 5575 5577 5578 5580 5582 5583 5585 5586 5587 5588 5589 5589 5590 5590 5590 5590 5589 5589 5589 5588 5587 5587 5586 5586 5585 5585 5585 5585 5585 5585 5585 5586 5586 5586 5586 5586 5586
5553 5554 5554 5556 5557 5559 5560 5562 5564 5566 5568 5570 5572 5573 5575 5576 5577 5578 5578 5579 5579 5579 5579 5579 5579 5579 5578 5578 5578 5577 5577 5577 5577 5577 5577 5577 5578 5578 5578 5578 5578 5578 5577
5537 5538 5539 5540 5542 5544 5546 5548 5550 5552 5554 5557 5559 5561 5562 5564 5565 5566 5567 5568 5569 5569 5569 5570 5570 5570 5570 5569 5569 5569 5569 5569 5569 5569 5569 5570 5570 5570 5570 5570 5570 5569 5569
5521 5521 5523 5525 5527 5529 5531 5533 5535 5538 5541 5543 5546 5548 5550 5552 5553 5555 5556 5557 5558 5559 5560 5560 5561 5561 5561 5561 5561 5561 5561 5561 5561 5562 5562 5562 5562 5562 5562 5561 5561 5560 5559
5503 5504 5506 5508 5511 5513 5516 5519 5521 5524 5527 5530 5532 5535 5538 5540 5541 5543 5545 5546 5547 5549 5550 5551 5551 5552 5552 5553 5553 5553 5554 5554 5554 5554 5554 5554 5554 5554 5553 5552 5552 5551 5550
5487 5488 5490 5492 5495 5498 5501 5504 5508 5511 5513 5516 5519 5522 5525 5527 5529 5531 5533 5535 5537 5538 5540 5541 5542 5543 5544 5544 5545 5545 5546 5546 5546 5546 5546 5545 5545 5545 5544 5543 5542 5541 5540
5469 5472 5474 5477 5480 5483 5486 5490 5493 5496 5500 5503 5507 5509 5512 5515 5517 5520 5522 5524 5527 5528 5530 5531 5532 5534 5535 5535 5536 5537 5537 5537 5537 5537 5537 5536 5536 5535 5534 5533 5532 5531 5530
5452 5454 5457 5460 5464 5467 5471 5475 5479 5482 5486 5490 5494 5497 5500 5502 5505 5508 5511 5514 5516 5518 5520 5521 5523 5524 5525 5526 5527 5528 5528 5528 5528 5528 5528 5527 5526 5526 5525 5523 5522 5521 5519
5434 5437 5440 5443 5447 5452 5456 5460 5464 5468 5472 5477 5481 5484 5487 5490 5494 5497 5500 5503 5505 5508 5509 5511 5513 5514 5516 5517 5518 5518 5519 5519 5519 5518 5518 5517 5517 5516 5514 5513 5512 5510 5509
5417 5419 5422 5427 5431 5436 5441 5446 5450 5454 5458 5463 5467 5471 5475 5478 5482 5486 5489 5492 5495 5497 5499 5501 5503 5504 5506 5507 5508 5509 5509 5509 5509 5509 5508 5507 5506 5505 5504 5503 5501 5500 5498
5399 5402 5406 5410 5415 5421 5426 5431 5436 5440 5445 5449 5454 5458 5462 5466 5470 5474 5478 5481 5484 5486 5488 5491 5493 5494 5496 5497 5498 5498 5499 5499 5498 5498 5498 5497 5496 5495 5494 5492 5491 5489 5487
5383 5386 5389 5394 5400 5405 5411 5417 5422 5427 5432 5436 5441 5446 5450 5454 5459 5463 5466 5469 5472 5475 5478 5480 5482 5484 5485 5486 5487 5488 5488 5488 5488 5488 5487 5486 5486 5484 5483 5481 5479 5477 5475
5370 5371 5374 5379 5385 5391 5397 5403 5408 5413 5419 5424 5428 5433 5438 5442 5446 5451 5454 5458 5461 5464 5467 5469 5471 5473 5475 5476 5477 5477 5477 5478 5477 5477 5477 5476 5475 5474 5472 5470 5468 5466 5463
5357 5359 5362 5366 5371 5377 5383 5389 5395 5400 5406 5411 5416 5421 5425 5430 5434 5438 5443 5446 5450 5453 5456 5458 5461 5462 5464 5465 5466 5467 5467 5467 5467 5467 5466 5465 5464 5463 5461 5459 5457 5454 5452
5346 5348 5350 5354 5358 5364 5370 5376 5381 5387 5393 5398 5404 5409 5413 5418 5422 5426 5430 5435 5438 5442 5445 5447 5450 5452 5453 5455 5456 5456 5457 5457 5457 5456 5455 5454 5453 5452 5450 5448 5445 5443 5440